Change the Weather History Date:

Monday, October 28, 2013

  Actual Average Record
Temperature  
Mean Temperature 76 °F 69 °F  
Max Temperature 89 °F 80 °F 95 °F (1926)
Min Temperature 63 °F 58 °F 36 °F (1957)
Degree Days  
Heating Degree Days 0 2  
Month to date heating degree days 4 14  
Since 1 July heating degree days 4 15  
Cooling Degree Days 11 6  
Month to date cooling degree days 250 229  
Year to date cooling degree days 3280 3027  
Growing Degree Days 26 (Base 50)    
Moisture  
Dew Point 66 °F    
Average Humidity 77    
Maximum Humidity 100    
Minimum Humidity 53    
Precipitation  
Precipitation 0.00 in 0.12 in 2.58 in (2002)
Month to date precipitation 3.03 4.25  
Year to date precipitation 22.90 35.28  
Snow  
Snow 0.00 in - - ()
Month to date snowfall 0.0  
Since 1 July snowfall 0.0  
Since 1 September snowfall 0.0  
Snow Depth 0.00 in    
Sea Level Pressure  
Sea Level Pressure 30.04 in    
Wind  
Wind Speed 8 mph (East)    
Max Wind Speed 21 mph    
Max Gust Speed 26 mph    
Visibility 5 miles    
Events Fog    
T = Trace of Precipitation, MM = Missing Value Source: NWS Daily Summary

Daily Weather History Graph

Daily Weather History Graph

Search for Another Location

Airport or City:

Trip Planner

Search our weather history database for the weather conditions in past years. The results will help you decide how hot, cold, wet, or windy it might be!

Date:

Astronomy

Oct. 28, 2013 Rise Set
Actual Time 7:37 AM CDT 6:45 PM CDT
Civil Twilight 7:13 AM CDT 7:09 PM CDT
Nautical Twilight 6:45 AM CDT 7:37 PM CDT
Astronomical Twilight 6:17 AM CDT 8:04 PM CDT
Moon 1:59 AM CDT 3:02 PM CDT
Length of Visible Light 11h 56m
Length of Day
11h 07m
Waning Crescent, 34% of the Moon is Illuminated
Oct 28
Waning Crescent
Nov 3
New
Nov 9
First Quarter
Nov 17
Full
Nov 25
Last Quarter

Hourly Weather History & Observations

Time (CDT) Temp. Heat Index Dew Point Humidity Pressure Visibility Wind Dir Wind Speed Gust Speed Precip Events Conditions
12:51 AM 66.0 °F - 64.0 °F 93% 30.02 in 7.0 mi ENE 4.6 mph - N/A   Clear
1:51 AM 64.9 °F - 64.0 °F 97% 30.01 in 4.0 mi ENE 3.5 mph - N/A   Clear
2:51 AM 64.9 °F - 64.0 °F 97% 30.01 in 4.0 mi East 3.5 mph - N/A   Clear
3:15 AM 64.4 °F - 64.4 °F 100% 30.01 in 1.8 mi Calm Calm - N/A   Clear
3:19 AM 64.4 °F - 62.6 °F 94% 30.01 in 1.0 mi Calm Calm - N/A   Mist
3:28 AM 64.4 °F - 64.4 °F 100% 30.01 in 0.5 mi Calm Calm - N/A Fog Fog
3:49 AM 64.4 °F - 62.6 °F 94% 30.01 in 0.2 mi Calm Calm - N/A Fog Fog
3:51 AM 64.0 °F - 63.0 °F 96% 30.01 in 0.2 mi Calm Calm - N/A Fog Fog
4:07 AM 64.4 °F - 62.6 °F 94% 30.01 in 0.2 mi Calm Calm - N/A Fog Fog
4:17 AM 64.4 °F - 62.6 °F 94% 30.01 in 0.2 mi Calm Calm - N/A Fog Fog
4:34 AM 64.4 °F - 62.6 °F 94% 30.01 in 0.2 mi NE 3.5 mph - N/A Fog Fog
4:48 AM 62.6 °F - 62.6 °F 100% 30.01 in 0.5 mi Calm Calm - N/A Fog Fog
4:51 AM 63.0 °F - 62.1 °F 97% 30.01 in 0.5 mi Calm Calm - N/A Fog Fog
5:02 AM 62.6 °F - 62.6 °F 100% 30.01 in 0.2 mi NE 3.5 mph - N/A Fog Fog
5:51 AM 63.0 °F - 62.1 °F 97% 30.02 in 0.2 mi NE 3.5 mph - N/A Fog Fog
6:27 AM 62.6 °F - 62.6 °F 100% 30.03 in 0.5 mi NE 4.6 mph - N/A Fog Fog
6:51 AM 64.0 °F - 64.0 °F 100% 30.03 in 0.5 mi NE 4.6 mph - N/A Fog Fog
7:32 AM 64.4 °F - 64.4 °F 100% 30.04 in 0.2 mi ENE 4.6 mph - N/A Fog Fog
7:51 AM 64.0 °F - 64.0 °F 100% 30.04 in 0.2 mi ENE 3.5 mph - N/A Fog Fog
7:58 AM 64.4 °F - 62.6 °F 94% 30.05 in 0.8 mi ENE 3.5 mph - N/A   Overcast
8:06 AM 64.4 °F - 62.6 °F 94% 30.05 in 1.2 mi NE 3.5 mph - N/A   Overcast
8:13 AM 64.4 °F - 64.4 °F 100% 30.05 in 1.5 mi NE 3.5 mph - N/A   Overcast
8:29 AM 66.2 °F - 64.4 °F 94% 30.06 in 2.0 mi NE 4.6 mph - N/A   Overcast
8:47 AM 66.2 °F - 66.2 °F 100% 30.06 in 3.0 mi ENE 3.5 mph - N/A   Scattered Clouds
8:48 AM 66.9 °F - 66.9 °F 100% 30.06 in 3.0 mi ENE 3.5 mph - N/A   Scattered Clouds
9:30 AM 71.6 °F - 69.8 °F 94% 30.08 in 6.0 mi East 5.8 mph - N/A   Scattered Clouds
9:51 AM 73.9 °F - 71.1 °F 91% 30.08 in 8.0 mi East 3.5 mph - N/A   Scattered Clouds
10:51 AM 81.0 °F 85.2 °F 72.0 °F 74% 30.09 in 10.0 mi South 8.1 mph - N/A   Partly Cloudy
11:25 AM 82.4 °F 87.2 °F 71.6 °F 70% 30.09 in 10.0 mi SSE 12.7 mph - N/A   Mostly Cloudy
11:35 AM 80.6 °F 83.9 °F 69.8 °F 70% 30.08 in 10.0 mi South 11.5 mph - N/A   Mostly Cloudy
11:51 AM 84.0 °F 87.8 °F 69.1 °F 61% 30.08 in 10.0 mi South 11.5 mph - N/A   Mostly Cloudy
12:51 PM 88.0 °F 91.4 °F 68.0 °F 51% 30.06 in 6.0 mi SSE 17.3 mph - N/A   Haze
1:51 PM 88.0 °F 91.4 °F 68.0 °F 51% 30.03 in 7.0 mi South 13.8 mph 21.9 mph N/A   Partly Cloudy
2:51 PM 86.0 °F 89.4 °F 68.0 °F 55% 30.01 in 10.0 mi SSE 15.0 mph - N/A   Scattered Clouds
3:51 PM 86.0 °F 90.7 °F 70.0 °F 59% 30.00 in 10.0 mi ESE 17.3 mph - N/A   Overcast
4:51 PM 82.0 °F 85.5 °F 69.1 °F 65% 30.01 in 10.0 mi ESE 15.0 mph - N/A   Partly Cloudy
5:51 PM 80.1 °F 82.3 °F 66.9 °F 64% 30.01 in 10.0 mi ESE 16.1 mph 24.2 mph N/A   Clear
6:51 PM 77.0 °F - 69.1 °F 76% 30.03 in 10.0 mi SE 12.7 mph - N/A   Scattered Clouds
7:51 PM 73.9 °F - 68.0 °F 82% 30.04 in 10.0 mi ESE 6.9 mph - N/A   Partly Cloudy
8:51 PM 73.0 °F - 69.1 °F 87% 30.05 in 10.0 mi ESE 8.1 mph - N/A   Clear
9:51 PM 73.0 °F - 68.0 °F 84% 30.06 in 10.0 mi ESE 6.9 mph - N/A   Clear
10:51 PM 73.0 °F - 68.0 °F 84% 30.06 in 10.0 mi SE 8.1 mph - N/A   Clear
11:51 PM 73.0 °F - 69.1 °F 87% 30.06 in 10.0 mi SE 6.9 mph - N/A   Clear